Sparta, IL

12:08 AM CDT on June 29, 2017 (GMT -0500)
Sparta Community-Hunter

Weather History for KSAR - November, 2012

Change the Weather History Date:

Friday, November 9, 2012

  Actual Average (KBLV) Record (KBLV)
Temperature  
Mean Temperature 58 °F -  
Max Temperature 69 °F 59 °F 77 °F (1975)
Min Temperature 46 °F 39 °F 10 °F (1991)
Degree Days  
Heating Degree Days 8    
Growing Degree Days 8 (Base 50)    
Moisture  
Dew Point 48 °F    
Average Humidity 70    
Maximum Humidity 88    
Minimum Humidity 49    
Precipitation  
Precipitation 0.00 in - - ()
Sea Level Pressure  
Sea Level Pressure 30.04 in    
Wind  
Wind Speed 11 mph (South)    
Max Wind Speed 17 mph    
Max Gust Speed 26 mph    
Visibility 10 miles    
Events      
Averages and records for this station are not official NWS values.
T = Trace of Precipitation, MM = Missing Value Source: NWS Daily Summary

Daily Weather History Graph

Daily Weather History Graph

Search for Another Location

Airport or City:

Trip Planner

Search our weather history database for the weather conditions in past years. The results will help you decide how hot, cold, wet, or windy it might be!

Date:

Astronomy

Nov. 09, 2012 Rise Set
Actual Time 6:33 AM CST 4:51 PM CST
Civil Twilight 6:06 AM CST 5:18 PM CST
Nautical Twilight 5:34 AM CST 5:50 PM CST
Astronomical Twilight 5:03 AM CST 6:21 PM CST
Moon 1:36 AM CST (11/9) 2:00 PM CST (11/9)
Length of Visible Light 11h 12m
Length of Day
10h 17m
Waning Crescent, 23% of the Moon is Illuminated
Nov 9
Waning Crescent
Nov 13
New
Nov 20
First Quarter
Nov 28
Full
Dec 6
Last Quarter

Hourly Weather History & Observations

Time (CST) Temp. Windchill Dew Point Humidity Pressure Visibility Wind Dir Wind Speed Gust Speed Precip Events Conditions
12:15 AM 48.2 °F - 41.0 °F 76% 30.10 in 10.0 mi South 9.2 mph - N/A   Clear
12:35 AM 46.4 °F 41.5 °F 41.0 °F 81% 30.10 in 10.0 mi South 10.4 mph - N/A   Clear
12:55 AM 46.4 °F 42.4 °F 41.0 °F 81% 30.10 in 10.0 mi South 8.1 mph - N/A   Clear
1:15 AM 46.4 °F 41.9 °F 41.0 °F 81% 30.11 in 10.0 mi South 9.2 mph - N/A   Clear
1:35 AM 46.4 °F 42.4 °F 41.0 °F 81% 30.11 in 10.0 mi South 8.1 mph - N/A   Clear
1:55 AM 46.4 °F 43.5 °F 41.0 °F 81% 30.10 in 10.0 mi South 5.8 mph - N/A   Clear
2:15 AM 46.4 °F 42.4 °F 41.0 °F 81% 30.10 in 10.0 mi South 8.1 mph - N/A   Clear
2:35 AM 46.4 °F 41.1 °F 41.0 °F 81% 30.09 in 10.0 mi South 11.5 mph - N/A   Clear
2:55 AM 46.4 °F 42.9 °F 41.0 °F 81% 30.09 in 10.0 mi South 6.9 mph - N/A   Clear
3:15 AM 48.2 °F - 41.0 °F 76% 30.09 in 10.0 mi South 9.2 mph - N/A   Clear
3:35 AM 46.4 °F 43.5 °F 41.0 °F 81% 30.09 in 10.0 mi South 5.8 mph - N/A   Clear
3:55 AM 46.4 °F 42.9 °F 42.8 °F 87% 30.09 in 10.0 mi South 6.9 mph - N/A   Clear
4:15 AM 46.4 °F 42.9 °F 42.8 °F 87% 30.10 in 10.0 mi South 6.9 mph - N/A   Clear
4:35 AM 46.4 °F 42.4 °F 42.8 °F 87% 30.10 in 10.0 mi South 8.1 mph - N/A   Clear
4:55 AM 48.2 °F - 42.8 °F 82% 30.10 in 10.0 mi South 9.2 mph - N/A   Clear
5:15 AM 48.2 °F - 41.0 °F 76% 30.09 in 10.0 mi South 9.2 mph - N/A   Clear
5:35 AM 48.2 °F - 41.0 °F 76% 30.09 in 10.0 mi South 8.1 mph - N/A   Scattered Clouds
5:55 AM 48.2 °F - 41.0 °F 76% 30.09 in 10.0 mi South 9.2 mph - N/A   Scattered Clouds
6:15 AM 48.2 °F - 41.0 °F 76% 30.09 in 10.0 mi South 9.2 mph - N/A   Clear
6:35 AM 48.2 °F - 41.0 °F 76% 30.09 in 10.0 mi South 10.4 mph 17.3 mph N/A   Clear
6:55 AM 48.2 °F - 41.0 °F 76% 30.10 in 10.0 mi South 10.4 mph - N/A   Mostly Cloudy
7:15 AM 50.0 °F - 42.8 °F 76% 30.10 in 10.0 mi South 10.4 mph 18.4 mph N/A   Overcast
7:35 AM 50.0 °F - 42.8 °F 76% 30.10 in 10.0 mi South 10.4 mph - N/A   Mostly Cloudy
7:55 AM 50.0 °F - 42.8 °F 76% 30.10 in 10.0 mi South 10.4 mph - N/A   Scattered Clouds
8:15 AM 53.6 °F - 42.8 °F 67% 30.09 in 10.0 mi South 10.4 mph 17.3 mph N/A   Mostly Cloudy
8:35 AM 53.6 °F - 41.0 °F 62% 30.10 in 10.0 mi South 12.7 mph - N/A   Mostly Cloudy
8:55 AM 55.4 °F - 41.0 °F 58% 30.08 in 10.0 mi South 16.1 mph 24.2 mph N/A   Mostly Cloudy
9:15 AM 55.4 °F - 41.0 °F 58% 30.09 in 10.0 mi South 11.5 mph 20.7 mph N/A   Scattered Clouds
9:35 AM 57.2 °F - 41.0 °F 55% 30.09 in 10.0 mi South 10.4 mph 18.4 mph N/A   Clear
9:55 AM 57.2 °F - 42.8 °F 59% 30.09 in 10.0 mi South 12.7 mph - N/A   Clear
10:15 AM 59.0 °F - 42.8 °F 55% 30.08 in 10.0 mi South 13.8 mph - N/A   Clear
10:35 AM 60.8 °F - 44.6 °F 55% 30.07 in 10.0 mi South 13.8 mph 18.4 mph N/A   Clear
10:55 AM 60.8 °F - 44.6 °F 55% 30.06 in 10.0 mi South 13.8 mph 19.6 mph N/A   Clear
11:15 AM 62.6 °F - 46.4 °F 55% 30.05 in 10.0 mi South 12.7 mph 18.4 mph N/A   Clear
11:35 AM 64.4 °F - 46.4 °F 52% 30.04 in 10.0 mi South 11.5 mph 19.6 mph N/A   Clear
11:55 AM 64.4 °F - 46.4 °F 52% 30.03 in 10.0 mi South 15.0 mph 20.7 mph N/A   Clear
12:15 PM 64.4 °F - 48.2 °F 56% 30.01 in 10.0 mi South 15.0 mph 19.6 mph N/A   Clear
12:35 PM 66.2 °F - 48.2 °F 52% 30.01 in 10.0 mi South 11.5 mph 24.2 mph N/A   Clear
12:55 PM 66.2 °F - 48.2 °F 52% 30.00 in 10.0 mi South 13.8 mph 20.7 mph N/A   Scattered Clouds
1:15 PM 66.2 °F - 50.0 °F 56% 29.99 in 10.0 mi South 9.2 mph 18.4 mph N/A   Scattered Clouds
1:35 PM 68.0 °F - 50.0 °F 52% 29.99 in 10.0 mi South 17.3 mph 25.3 mph N/A   Scattered Clouds
1:55 PM 68.0 °F - 48.2 °F 49% 29.98 in 10.0 mi South 16.1 mph 24.2 mph N/A   Clear
2:15 PM 68.0 °F - 50.0 °F 52% 29.98 in 10.0 mi South 17.3 mph 21.9 mph N/A   Clear
2:35 PM 69.8 °F - 51.8 °F 53% 29.98 in 10.0 mi South 12.7 mph 23.0 mph N/A   Clear
2:55 PM 68.0 °F - 51.8 °F 56% 29.98 in 10.0 mi South 12.7 mph 23.0 mph N/A   Clear
3:15 PM 69.8 °F - 53.6 °F 56% 29.98 in 10.0 mi South 12.7 mph 19.6 mph N/A   Clear
3:35 PM 69.8 °F - 53.6 °F 56% 29.97 in 10.0 mi South 13.8 mph 26.5 mph N/A   Clear
3:55 PM 68.0 °F - 55.4 °F 64% 29.97 in 10.0 mi South 13.8 mph 21.9 mph N/A   Clear
4:15 PM 68.0 °F - 57.2 °F 68% 29.97 in 10.0 mi South 11.5 mph 21.9 mph N/A   Clear
4:35 PM 66.2 °F - 57.2 °F 73% 29.97 in 10.0 mi South 11.5 mph 21.9 mph N/A   Clear
4:55 PM 66.2 °F - 57.2 °F 73% 29.97 in 10.0 mi South 16.1 mph 23.0 mph N/A   Clear
5:15 PM 66.2 °F - 57.2 °F 73% 29.98 in 10.0 mi South 15.0 mph - N/A   Clear
5:35 PM 66.2 °F - 57.2 °F 73% 29.98 in 10.0 mi South 12.7 mph 19.6 mph N/A   Clear
5:55 PM 66.2 °F - 59.0 °F 78% 29.98 in 10.0 mi South 16.1 mph 21.9 mph N/A   Clear
6:35 PM 64.4 °F - 59.0 °F 83% 29.99 in 10.0 mi South 15.0 mph 19.6 mph N/A   Clear
6:55 PM 64.4 °F - 59.0 °F 83% 29.99 in 10.0 mi South 11.5 mph - N/A   Clear
7:35 PM 64.4 °F - 59.0 °F 83% 30.00 in 10.0 mi South 10.4 mph 16.1 mph N/A   Clear
7:55 PM 62.6 °F - 59.0 °F 88% 30.01 in 10.0 mi South 9.2 mph - N/A   Clear
8:15 PM 62.6 °F - 57.2 °F 82% 30.01 in 10.0 mi South 11.5 mph 18.4 mph N/A   Clear
8:35 PM 62.6 °F - 57.2 °F 82% 30.01 in 10.0 mi South 13.8 mph 18.4 mph N/A   Clear
8:55 PM 62.6 °F - 57.2 °F 82% 30.01 in 10.0 mi South 15.0 mph 19.6 mph N/A   Clear
9:15 PM 62.6 °F - 57.2 °F 82% 30.02 in 10.0 mi South 12.7 mph 23.0 mph N/A   Clear
9:35 PM 62.6 °F - 55.4 °F 77% 30.02 in 10.0 mi South 15.0 mph 24.2 mph N/A   Clear
9:55 PM 62.6 °F - 55.4 °F 77% 30.02 in 10.0 mi South 17.3 mph 23.0 mph N/A   Clear
10:15 PM 62.6 °F - 55.4 °F 77% 30.02 in 10.0 mi SSW 16.1 mph 20.7 mph N/A   Clear
10:35 PM 60.8 °F - 53.6 °F 77% 30.02 in 10.0 mi South 13.8 mph 21.9 mph N/A   Clear
10:55 PM 60.8 °F - 51.8 °F 72% 30.03 in 10.0 mi South 13.8 mph 20.7 mph N/A   Clear
11:15 PM 60.8 °F - 50.0 °F 68% 30.03 in 10.0 mi South 13.8 mph 19.6 mph N/A   Clear
11:35 PM 60.8 °F - 48.2 °F 63% 30.03 in 10.0 mi SSW 12.7 mph 20.7 mph N/A   Clear